{"data":{"norad_id":62417,"epoch":"2026-05-25T02:00:49.826592Z","epoch_age_seconds":58063,"freshness":"FRESH","line1":"1 62417U 24249J   26145.08391003  .00150067  00000+0  11514-2 0  9995","line2":"2 62417  42.9996  67.3425 0002361 282.2235  77.8368 15.70851998 81498","mean_motion":15.70851998,"eccentricity":0.0002361,"inclination_deg":42.9996,"raan_deg":67.3425,"arg_perigee_deg":282.2235,"mean_anomaly_deg":77.8368,"bstar":0.0011514,"rev_number":8149,"period_min":91.669998308778,"perigee_km":354.87073072405,"apogee_km":358.05080779069,"semimajor_km":6734.5977692574,"source":"CELESTRAK","updated_at":"2026-05-25T13:38:19.653721Z"}}